DELTA 1 DEB, 20008

Orbit data source: Space-Track

DELTA 1 DEB, 20008 is space debris in SSO originally from a launch on Sun, 05 Mar 1978 UTC launched from the Air Force Western Test Range (AFWTR). Debris objects in space refer to the collection of defunct objects orbiting the Earth. Examples of debris include non-operational satellites, rocket bodies, and fragments generated from explosions, collisions, or faulty payload assembly.

Loading next visibility...
Identifier
20008, 1978-026HR
Orbit
SSO
Country
Flag of USUS
Related business
Manufacturer
Unknown
Mission
Spacecraft
Bus & Motor
Unknown
Mass
Unknown
Launch date (UTC)
1978-03-05 (48 years ago)
Launch vehicle
Unknown
Launch site
Air Force Western Test Range (AFWTR)
Object type
Payload
Rocket body
Debris
Shape & HBR
Unknown shape, 0.1 m
Radar Cross Section
Medium (>0.1 m² and <1 m²)

Expand to show TLE details & history
Last TLE update: 2 days ago

TLE from 2 days ago
0 DELTA 1 DEB
1 20008U 78026HR  26171.17087103  .00000329  00000-0  25611-3 0  9999
2 20008  98.8606  65.4314 0200812  31.0486 330.2362 13.89802427 11754
Epoch: 2026-06-20T04:06Z
TLE epoch observation values (Epoch: 2026-06-20T04:06:03.256Z)
Latitude
-0.00011°
Longitude
95.52852°
Altitude
805.529 km
Speed
7.515 km/s
True Right ascension
04h 21m 43s
True Declination
0° 00' 00"
Sunlit
Object was in daylight at epoch
Visualization orbit readout
Latitude
Unknown
Longitude
Unknown
Altitude
Unknown
Speed
Unknown
Apparent Right ascension
Unknown
Apparent Declination
Unknown
Sunlit
N/A
Visualization observer readout
Local Sidereal Time
01:45:25
Azimuth
Unknown
Elevation
Unknown
Doppler factor
Unknown
Orbital elements
Apogee altitude
1,073.214 km
Perigee altitude
779.841 km
Semi-major axis
7,304.665 km
Eccentricity
0.02008
Inclination
98.8606°
RAAN
65.4314°
Arg. of periapsis
31.0486°
True anomaly
329.06852°
Mean anomaly
330.2362°
Eccentric anomaly
329.65493°
Mean motion
3.4765 °/min
Orbital period
103.55 mins
BSTAR
0.00025611
Loading maneuver chart data...
Computing Atmospheric mass density...

Documentation

Showing up to 5 results
|